Weather History for KPVJ - December, 2012

Change the Weather History Date:

Wednesday, December 5, 2012

  Actual Average (KADH) Record (KADH)
Temperature  
Mean Temperature 47 °F -  
Max Temperature 62 °F 58 °F 78 °F (1956)
Min Temperature 32 °F 36 °F 11 °F (1910)
Degree Days  
Heating Degree Days 18    
Moisture  
Dew Point 32 °F    
Average Humidity 56    
Maximum Humidity 81    
Minimum Humidity 34    
Precipitation  
Precipitation 0.00 in - - ()
Sea Level Pressure  
Sea Level Pressure 30.19 in    
Wind  
Wind Speed 4 mph (ESE)    
Max Wind Speed 8 mph    
Max Gust Speed -    
Visibility 10 miles    
Events      
Averages and records for this station are not official NWS values.
T = Trace of Precipitation, MM = Missing Value Source: NWS Daily Summary

Daily Weather History Graph

Daily Weather History Graph

Search for Another Location

Airport or City:

Trip Planner

Search our weather history database for the weather conditions in past years. The results will help you decide how hot, cold, wet, or windy it might be!

Date:

Astronomy

Dec. 05, 2012 Rise Set
Actual Time 7:21 AM CST 5:17 PM CST
Civil Twilight 6:53 AM CST 5:45 PM CST
Nautical Twilight 6:22 AM CST 6:16 PM CST
Astronomical Twilight 5:52 AM CST 6:47 PM CST
Moon 11:56 PM CST 11:57 AM CST
Length of Visible Light 10h 51m
Length of Day
9h 56m
Waning Gibbous, 59% of the Moon is Illuminated
Dec 5
Waning Gibbous
Dec 6
Last Quarter
Dec 13
New
Dec 19
First Quarter
Dec 28
Full

Hourly Weather History & Observations

Time (CST) Temp. Windchill Dew Point Humidity Pressure Visibility Wind Dir Wind Speed Gust Speed Precip Events Conditions
12:15 AM 44.6 °F 42.2 °F 21.2 °F 39% 30.31 in 10.0 mi NNE 4.6 mph - N/A   Unknown
12:35 AM 42.8 °F 41.1 °F 23.0 °F 46% 30.30 in 10.0 mi NNE 3.5 mph - N/A   Unknown
12:55 AM 42.8 °F 40.1 °F 23.0 °F 46% 30.30 in 10.0 mi NNE 4.6 mph - N/A   Unknown
1:15 AM 42.8 °F 39.3 °F 23.0 °F 46% 30.30 in 10.0 mi North 5.8 mph - N/A   Unknown
1:55 AM 35.6 °F 30.7 °F 24.8 °F 65% 30.31 in 10.0 mi NW 5.8 mph - N/A   Unknown
2:15 AM 35.6 °F 31.7 °F 24.8 °F 65% 30.32 in 10.0 mi NNW 4.6 mph - N/A   Unknown
2:35 AM 35.6 °F 32.8 °F 26.6 °F 70% 30.31 in 10.0 mi North 3.5 mph - N/A   Unknown
2:55 AM 41.0 °F 39.0 °F 24.8 °F 53% 30.31 in 10.0 mi NNE 3.5 mph - N/A   Unknown
3:15 AM 39.2 °F 35.9 °F 24.8 °F 56% 30.31 in 10.0 mi North 4.6 mph - N/A   Unknown
3:35 AM 35.6 °F 30.7 °F 26.6 °F 70% 30.31 in 10.0 mi NW 5.8 mph - N/A   Unknown
3:55 AM 35.6 °F 30.7 °F 26.6 °F 70% 30.31 in 10.0 mi NNW 5.8 mph - N/A   Unknown
4:15 AM 33.8 °F 28.6 °F 26.6 °F 75% 30.30 in 10.0 mi NNW 5.8 mph - N/A   Unknown
4:35 AM 35.6 °F 32.8 °F 26.6 °F 70% 30.29 in 10.0 mi NNW 3.5 mph - N/A   Unknown
4:55 AM 33.8 °F - 26.6 °F 75% 30.29 in 10.0 mi Calm Calm - N/A   Unknown
5:15 AM 35.6 °F - 26.6 °F 70% 30.28 in 10.0 mi Calm Calm - N/A   Unknown
5:35 AM 35.6 °F - 26.6 °F 70% 30.28 in 10.0 mi Calm Calm - N/A   Unknown
5:55 AM 32.0 °F - 26.6 °F 80% 30.29 in 10.0 mi Calm Calm - N/A   Unknown
6:15 AM 33.8 °F 30.8 °F 26.6 °F 75% 30.29 in 10.0 mi NNW 3.5 mph - N/A   Unknown
6:35 AM 32.0 °F 26.4 °F 26.6 °F 80% 30.29 in 10.0 mi NNW 5.8 mph - N/A   Unknown
6:55 AM 33.8 °F 30.8 °F 28.4 °F 81% 30.29 in 10.0 mi NNW 3.5 mph - N/A   Unknown
8:35 AM 37.4 °F 34.9 °F 30.2 °F 75% 30.31 in 10.0 mi NW 3.5 mph - N/A   Unknown
8:55 AM 39.2 °F 37.0 °F 30.2 °F 70% 30.31 in 10.0 mi NW 3.5 mph - N/A   Unknown
9:15 AM 42.8 °F - 32.0 °F 66% 30.31 in 10.0 mi Calm Calm - N/A   Unknown
9:35 AM 46.4 °F 45.2 °F 32.0 °F 57% 30.31 in 10.0 mi East 3.5 mph - N/A   Unknown
9:55 AM 48.2 °F - 32.0 °F 54% 30.30 in 10.0 mi Calm Calm - N/A   Unknown
10:15 AM 50.0 °F - 32.0 °F 50% 30.31 in 10.0 mi East 3.5 mph - N/A   Unknown
10:35 AM 51.8 °F - 32.0 °F 47% 30.29 in 10.0 mi Calm Calm - N/A   Unknown
10:55 AM 55.4 °F - 32.0 °F 41% 30.28 in 10.0 mi Calm Calm - N/A   Unknown
11:15 AM 55.4 °F - 32.0 °F 41% 30.27 in 10.0 mi Calm Calm - N/A   Unknown
11:35 AM 57.2 °F - 32.0 °F 38% 30.26 in 10.0 mi SSE 4.6 mph - N/A   Unknown
11:55 AM 59.0 °F - 32.0 °F 36% 30.25 in 10.0 mi Calm Calm - N/A   Unknown
12:15 PM 59.0 °F - 32.0 °F 36% 30.22 in 10.0 mi South 4.6 mph - N/A   Unknown
12:35 PM 59.0 °F - 32.0 °F 36% 30.21 in 10.0 mi Calm Calm - N/A   Unknown
12:55 PM 60.8 °F - 32.0 °F 34% 30.19 in 10.0 mi SSW 3.5 mph - N/A   Unknown
1:15 PM 60.8 °F - 33.8 °F 36% 30.18 in 10.0 mi Calm Calm - N/A   Unknown
1:35 PM 62.6 °F - 33.8 °F 34% 30.17 in 10.0 mi Calm Calm - N/A   Unknown
1:55 PM 60.8 °F - 33.8 °F 36% 30.16 in 10.0 mi Calm Calm - N/A   Unknown
2:15 PM 62.6 °F - 33.8 °F 34% 30.15 in 10.0 mi Calm Calm - N/A   Unknown
2:35 PM 60.8 °F - 33.8 °F 36% 30.14 in 10.0 mi Calm Calm - N/A   Unknown
2:55 PM 62.6 °F - 33.8 °F 34% 30.13 in 10.0 mi Calm Calm - N/A   Unknown
3:15 PM 62.6 °F - 33.8 °F 34% 30.12 in 10.0 mi Calm Calm - N/A   Unknown
3:35 PM 62.6 °F - 33.8 °F 34% 30.12 in 10.0 mi SE 3.5 mph - N/A   Unknown
3:55 PM 62.6 °F - 33.8 °F 34% 30.11 in 10.0 mi SE 6.9 mph - N/A   Unknown
4:15 PM 60.8 °F - 33.8 °F 36% 30.11 in 10.0 mi ESE 5.8 mph - N/A   Unknown
4:35 PM 60.8 °F - 33.8 °F 36% 30.10 in 10.0 mi ESE 5.8 mph - N/A   Unknown
4:55 PM 59.0 °F - 35.6 °F 42% 30.09 in 10.0 mi ESE 6.9 mph - N/A   Unknown
5:15 PM 57.2 °F - 35.6 °F 44% 30.09 in 10.0 mi ESE 5.8 mph - N/A   Unknown
5:35 PM 55.4 °F - 35.6 °F 47% 30.09 in 10.0 mi ESE 5.8 mph - N/A   Unknown
5:55 PM 55.4 °F - 35.6 °F 47% 30.09 in 10.0 mi ESE 6.9 mph - N/A   Unknown
6:15 PM 53.6 °F - 35.6 °F 51% 30.09 in 10.0 mi ESE 6.9 mph - N/A   Unknown
6:35 PM 53.6 °F - 35.6 °F 51% 30.10 in 10.0 mi SE 3.5 mph - N/A   Unknown
6:55 PM 53.6 °F - 35.6 °F 51% 30.09 in 10.0 mi SE 5.8 mph - N/A   Unknown
7:15 PM 51.8 °F - 37.4 °F 58% 30.09 in 10.0 mi SE 4.6 mph - N/A   Unknown
7:35 PM 51.8 °F - 37.4 °F 58% 30.08 in 10.0 mi SE 4.6 mph - N/A   Unknown
7:55 PM 50.0 °F - 37.4 °F 62% 30.07 in 10.0 mi SSE 5.8 mph - N/A   Unknown
8:15 PM 50.0 °F - 37.4 °F 62% 30.07 in 10.0 mi South 4.6 mph - N/A   Unknown
8:35 PM 50.0 °F - 37.4 °F 62% 30.07 in 10.0 mi SSE 6.9 mph - N/A   Unknown
8:55 PM 48.2 °F - 37.4 °F 66% 30.06 in 10.0 mi SSE 5.8 mph - N/A   Unknown
9:15 PM 46.4 °F 43.5 °F 37.4 °F 71% 30.06 in 10.0 mi South 5.8 mph - N/A   Unknown
9:35 PM 46.4 °F 43.5 °F 37.4 °F 71% 30.06 in 10.0 mi SSE 5.8 mph - N/A   Unknown
9:55 PM 46.4 °F 44.3 °F 37.4 °F 71% 30.05 in 10.0 mi SSE 4.6 mph - N/A   Unknown
10:15 PM 46.4 °F 43.5 °F 37.4 °F 71% 30.05 in 10.0 mi SSE 5.8 mph - N/A   Unknown
10:35 PM 46.4 °F 42.4 °F 41.0 °F 81% 30.05 in 10.0 mi South 8.1 mph - N/A   Unknown
10:55 PM 46.4 °F 42.9 °F 41.0 °F 81% 30.04 in 10.0 mi SSE 6.9 mph - N/A   Unknown
11:15 PM 46.4 °F 44.3 °F 41.0 °F 81% 30.04 in 10.0 mi SSE 4.6 mph - N/A   Unknown
11:35 PM 46.4 °F 43.5 °F 41.0 °F 81% 30.04 in 10.0 mi SSE 5.8 mph - N/A   Unknown
11:55 PM 46.4 °F 42.9 °F 41.0 °F 81% 30.03 in 10.0 mi SSE 6.9 mph - N/A   Unknown